Regional Weather Roundup
Issued by NWS

Home | Current Version | Previous Version | Graphics & Text | Print | Product List | Glossary On
Versions: 1 2 3 4 5 6 7 8 9 10 11 12 13 14 15 16 17 18 19 20 21 22 23 24 25 26 27 28 29 30 31 32 33 34 35 36 37 38 39 40 41 42 43 44 45 46 47 48 49 50
931
ASUS45 KCYS 242010
RWRWY

WYOMING REGIONAL WEATHER ROUNDUP
NATIONAL WEATHER SERVICE CHEYENNE WY
200 PM MDT MON JUL 24 2017

NOTE:  "FAIR" INDICATES FEW OR NO CLOUDS BELOW 12,000 FEET
WITH NO SIGNIFICANT WEATHER AND/OR OBSTRUCTIONS TO VISIBILITY.

WYZ001-242100-
YELLOWSTONE NATIONAL PARK

CITY           SKY/WX    TMP DP  RH WIND       PRES   REMARKS
LK YELLOWSTONE   N/A     77  28  16 CALM      30.25F
W YELLOWSTONE  NOT AVBL

$$
WYZ002>013-054>058-071-098>099-242100-
NORTHERN WYOMING

CITY           SKY/WX    TMP DP  RH WIND       PRES   REMARKS
JACKSON        SUNNY     84  34  16 CALM      30.15F
CODY           FAIR      88  41  19 N7        29.99F
GREYBULL       FAIR      96  32  10 CALM      29.88F HX  90
WORLAND        FAIR      97  32  10 N7        29.89F HX  91
SHERIDAN       FAIR      94  41  16 NW13      29.92S HX  90
BUFFALO        FAIR      91  37  15 N12       29.99F
GILLETTE       FAIR      96  35  11 NW8       29.92F HX  91
HULETT         FAIR      95  39  14 CALM      29.93S HX  91
NEWCASTLE      FAIR      95  30  10 NW15G21   29.92F

$$
WYZ014>020-022>026-101>103-242100-
CENTRAL WYOMING

CITY           SKY/WX    TMP DP  RH WIND       PRES   REMARKS
BIG PINEY      FAIR      82  34  17 VRB5G25   30.21S
PINEDALE       CLOUDY    79  32  18 CALM      30.21F
DUBOIS         FAIR      82  19   9 NW18G26   30.18S
LANDER         FAIR      88  35  15 S6        30.04F
RIVERTON       FAIR      93  28  10 MISG      30.02F
CASPER         FAIR      96  28   9 W13G21    30.02F HX  90
DOUGLAS        FAIR      98  30   9 NW16G22   30.00S HX  92

$$
WYZ021-027>030-104>119-242100-
SOUTHERN WYOMING

CITY           SKY/WX    TMP DP  RH WIND       PRES   REMARKS
EVANSTON       FAIR      85  39  19 S8        30.22F
KEMMERER         N/A     81  34  18 S7        30.23F
FORT BRIDGER   FAIR      84  32  15 SW7       30.25F
ROCK SPRINGS   FAIR      86  36  16 W9G17     30.19F
RAWLINS        FAIR      85  34  16 W17G24    30.20F
SARATOGA       FAIR      86  32  14 W13G18    30.22F
LARAMIE        FAIR      83  33  16 N9        30.21S
CHEYENNE       FAIR      93  30  10 MISG      30.10F
TORRINGTON     FAIR      97  28   8 W5        29.92F HX  91
PINE BLUFFS    FAIR      95  32  11 W5        30.03F HX  90

$$




USA.gov is the U.S. government's official web portal to all federal, state and local government web resources and services.